Location: Unspecified
(43.8044°N, 11.0278°E)
Time: 18:09:58
(UTC+02:00)

Okean 3 - Visible Passes

Search period start: 27 May 2016 00:00
Search period end: 06 June 2016 00:00
Orbit: 577 x 605 km, 82.5° (Epoch: 26 May)

Date Brightness Start Highest point End Pass type
(mag) Time Alt. Az. Time Alt. Az. Time Alt. Az.
30 May 6.9 04:14:01 10° NE 04:15:03 11° ENE 04:16:05 10° E visible
31 May 6.4 04:21:11 10° NNE 04:23:47 16° ENE 04:26:23 10° ESE visible
01 Jun 6.1 04:29:06 10° NNE 04:32:28 23° ENE 04:35:49 10° SE visible
02 Jun 5.4 04:37:16 10° N 04:41:06 33° ENE 04:44:56 10° SE visible
03 Jun 4.5 04:45:35 10° N 04:49:42 49° ENE 04:53:49 10° SSE visible
04 Jun 3.7 04:54:01 10° N 04:58:15 76° E 05:02:29 10° SSE visible
05 Jun 6.6 03:27:51 10° NE 03:28:58 11° ENE 03:30:07 10° E visible
